TimeCST,TemperatureF,Dew PointF,Humidity,Sea Level PressureIn,VisibilityMPH,Wind Direction,Wind SpeedMPH,Gust SpeedMPH,PrecipitationIn,Events,Conditions,WindDirDegrees,DateUTC
12:56 AM,44.1,37.0,76,30.24,10.0,North,4.6,-,N/A,,Clear,10,2013-01-07 06:56:00
1:56 AM,43.0,36.0,76,30.23,10.0,North,4.6,-,N/A,,Clear,10,2013-01-07 07:56:00
2:56 AM,42.1,35.1,76,30.23,10.0,NNE,4.6,-,N/A,,Clear,20,2013-01-07 08:56:00
3:56 AM,41.0,35.1,79,30.24,10.0,NNE,3.5,-,N/A,,Clear,20,2013-01-07 09:56:00
4:56 AM,41.0,35.1,79,30.23,10.0,North,4.6,-,N/A,,Clear,10,2013-01-07 10:56:00
5:56 AM,39.0,33.1,79,30.24,8.0,North,3.5,-,N/A,,Scattered Clouds,360,2013-01-07 11:56:00
6:56 AM,37.9,33.1,83,30.25,7.0,North,3.5,-,N/A,,Scattered Clouds,360,2013-01-07 12:56:00
7:56 AM,42.1,35.1,76,30.27,9.0,NE,4.6,-,N/A,,Scattered Clouds,40,2013-01-07 13:56:00
8:56 AM,48.0,36.0,63,30.29,10.0,ENE,9.2,-,N/A,,Partly Cloudy,70,2013-01-07 14:56:00
9:56 AM,53.1,35.1,50,30.28,10.0,ENE,11.5,-,N/A,,Partly Cloudy,70,2013-01-07 15:56:00
10:56 AM,55.9,34.0,44,30.26,10.0,ENE,10.4,-,N/A,,Partly Cloudy,70,2013-01-07 16:56:00
11:56 AM,60.1,34.0,38,30.22,10.0,ENE,4.6,-,N/A,,Partly Cloudy,60,2013-01-07 17:56:00
12:56 PM,62.1,33.1,34,30.20,10.0,Variable,3.5,-,N/A,,Partly Cloudy,0,2013-01-07 18:56:00
1:56 PM,63.0,33.1,33,30.19,10.0,ENE,4.6,-,N/A,,Scattered Clouds,60,2013-01-07 19:56:00
2:56 PM,64.0,33.1,31,30.19,10.0,NE,8.1,-,N/A,,Scattered Clouds,50,2013-01-07 20:56:00
3:56 PM,63.0,33.1,33,30.19,10.0,ENE,6.9,-,N/A,,Scattered Clouds,70,2013-01-07 21:56:00
4:56 PM,57.0,37.0,47,30.20,10.0,NE,3.5,-,N/A,,Scattered Clouds,50,2013-01-07 22:56:00
5:56 PM,53.1,36.0,52,30.21,10.0,NE,5.8,-,N/A,,Scattered Clouds,50,2013-01-07 23:56:00
6:56 PM,52.0,35.1,53,30.21,10.0,ENE,6.9,-,N/A,,Scattered Clouds,70,2013-01-08 00:56:00
7:56 PM,48.9,35.1,59,30.23,10.0,East,3.5,-,N/A,,Scattered Clouds,80,2013-01-08 01:56:00
8:56 PM,48.9,35.1,59,30.23,10.0,NE,3.5,-,N/A,,Overcast,40,2013-01-08 02:56:00
9:56 PM,48.9,35.1,59,30.20,10.0,ENE,6.9,-,N/A,,Overcast,70,2013-01-08 03:56:00
10:56 PM,48.9,35.1,59,30.19,10.0,ENE,5.8,-,N/A,,Overcast,60,2013-01-08 04:56:00
11:56 PM,48.0,36.0,63,30.17,10.0,East,6.9,-,N/A,,Clear,80,2013-01-08 05:56:00